Wetbulb
57.07 57.22 57.29 57.41 57.50 57.45 56.95 57.06 57.55 57.84 58.37 58.96 59.12 59.00 59.05 59.37 58.88 56.19 52.53 56.34 58.58 65.76 64.56 63.00 58.65 57.64 54.96 52.25 54.58 50.48 44.01 40.78 42.63 39.91 41.86 42.14 41.48 44.97 48.36 47.56 48.48 48.73 48.05 49.02 49.43
55.86 56.19 56.25 56.48 56.38 56.75 56.35 56.36 56.56 57.53 58.03 58.66 58.66 58.54 58.69 59.04 55.21 52.66 59.81 64.98 65.69 67.71 56.91 55.84 53.47 54.18 50.08 49.66 50.74 48.01 42.49 44.39 47.10 43.73 43.14 43.30 43.40 45.98 46.79 46.97 45.96 46.72 49.00 49.82 49.72
55.31 55.22 55.42 55.63 55.73 56.11 55.93 55.83 55.93 56.58 57.58 57.82 57.94 57.84 58.39 57.89 51.85 52.34 65.76 65.05 66.69 67.29 57.70 56.42 54.34 53.03 47.56 48.18 48.58 47.12 45.83 47.56 48.27 46.50 45.48 44.26 42.93 46.21 45.85 43.75 46.05 45.02 47.10 48.13 48.14
55.22 55.07 54.95 55.00 55.06 55.16 55.07 55.26 55.52 56.03 56.21 56.43 57.12 57.33 58.15 54.94 41.73 53.22 69.90 69.18 67.68 63.15 56.60 53.86 51.19 47.57 45.49 45.81 48.42 45.13 49.33 48.64 48.81 48.56 44.89 44.49 46.16 46.88 46.33 46.56 49.66 48.27 48.63 47.84 47.42
54.65 54.78 54.74 54.70 54.64 54.68 55.12 54.94 55.08 55.37 55.13 55.52 56.37 57.37 55.10 47.73 49.06 58.13 69.20 68.50 63.30 58.61 55.51 53.24 50.19 47.77 44.88 46.88 48.14 46.70 47.61 47.81 47.39 45.13 45.81 46.60 45.64 45.95 46.56 49.38 49.94 48.65 48.58 47.65 47.16
53.78 53.99 54.07 54.28 53.99 53.91 54.40 54.64 54.82 54.93 54.82 55.20 56.23 57.23 49.51 42.39 53.20 55.59 59.38 62.10 60.64 56.53 54.99 54.07 52.33 51.93 48.42 47.79 47.43 49.22 47.21 46.79 45.07 43.65 44.76 45.20 44.80 46.09 47.48 49.51 48.43 47.62 46.87 47.31 47.95
53.27 53.29 53.58 53.41 53.15 53.07 53.81 53.86 53.59 53.76 54.49 55.64 56.24 55.63 49.61 44.77 52.00 57.48 60.20 57.12 58.41 57.54 54.41 54.69 54.17 52.25 49.98 47.63 49.12 47.02 44.49 46.17 45.71 44.29 44.15 45.60 43.26 44.46 47.96 48.29 46.51 46.30 46.59 47.42 47.95
53.64 53.49 53.16 52.98 52.84 52.74 53.03 53.45 53.33 53.80 55.32 56.21 57.33 54.13 44.54 51.92 53.34 50.86 51.34 53.98 56.98 58.11 55.82 55.49 54.42 51.97 50.88 50.68 48.49 44.47 42.39 39.00 43.85 45.50 45.90 44.77 39.90 45.50 47.74 46.86 45.33 45.74 46.34 47.02 47.60
53.41 53.31 53.00 52.96 52.82 52.71 52.85 52.87 53.15 54.10 58.51 58.44 53.49 49.05 43.62 54.64 53.17 53.81 53.20 52.18 55.60 56.04 55.90 57.40 52.36 49.13 47.80 44.67 42.50 42.71 39.68 40.36 42.88 45.50 44.59 42.93 41.53 45.43 47.02 46.84 45.08 44.69 45.81 46.57 46.99
53.50 53.16 53.24 52.73 52.44 52.64 52.45 51.97 51.95 53.57 57.80 57.55 55.96 44.43 45.01 44.58 51.70 53.92 54.50 55.48 53.74 53.22 52.12 50.94 47.06 44.12 41.54 40.57 36.46 38.59 39.04 40.89 40.91 43.97 43.31 41.21 41.66 43.88 46.72 46.52 45.55 44.47 45.43 46.10 46.99
53.65 53.22 52.81 52.91 52.17 52.13 49.32 43.96 44.61 46.50 50.38 44.79 43.69 44.27 48.03 52.22 53.19 52.69 55.95 54.89 53.35 49.87 44.92 46.28 42.79 39.70 41.93 43.49 44.41 43.42 41.26 40.95 43.66 45.56 42.63 42.03 42.10 45.32 45.43 44.76 43.95 43.50 44.06 44.88 46.42
53.68 53.64 53.02 52.77 52.39 51.97 45.52 40.31 43.24 42.91 39.60 47.86 48.01 49.13 51.52 51.45 47.80 49.84 55.40 50.19 48.54 44.35 45.88 43.36 40.95 44.45 45.83 45.09 43.60 41.94 39.92 39.28 42.50 44.51 42.03 42.24 41.58 43.10 44.51 45.02 45.20 43.90 43.60 44.67 45.63
53.22 53.14 52.79 52.73 52.18 44.40 42.30 44.20 45.90 43.91 39.13 45.29 48.10 47.98 48.77 50.49 47.07 47.80 52.69 50.39 47.03 43.94 43.52 41.53 43.96 47.40 45.70 43.90 42.43 41.28 39.27 39.51 40.33 42.35 41.66 39.57 38.11 40.35 43.60 44.41 45.58 44.26 45.02 45.40 45.71
53.31 53.02 52.78 52.20 43.39 42.48 39.88 45.29 45.19 43.45 36.46 40.59 44.93 47.89 48.87 49.76 45.78 51.52 53.92 51.30 46.93 44.82 44.23 43.32 46.62 46.12 43.43 43.30 43.55 38.47 44.22 43.53 41.94 38.74 33.90 39.93 30.21 38.11 40.98 42.33 44.58 43.13 42.99 44.83 45.46
53.41 53.14 52.49 50.96 42.07 40.69 42.61 45.44 45.24 42.99 23.25 41.49 45.03 51.27 48.65 46.83 46.83 47.99 52.47 49.76 45.59 45.83 45.04 44.05 43.50 43.28 42.49 44.23 44.72 42.49 45.27 42.79 41.75 37.52 34.15 36.13 30.92 36.52 40.56 41.51 42.67 43.25 43.27 44.21 45.34
53.06 53.12 52.33 45.07 41.94 43.66 45.56 44.99 43.08 35.59 26.55 39.05 45.44 44.54 43.41 45.63 46.03 47.31 48.57 51.01 49.88 45.61 44.60 45.78 47.38 46.41 45.94 46.91 46.36 46.78 42.25 39.76 37.58 34.63 28.34 35.39 34.02 33.46 37.46 42.03 43.39 44.03 44.14 44.64 45.02
52.77 53.08 50.90 46.10 38.81 43.87 43.87 41.65 34.17 28.35 40.24 38.16 40.39 43.46 43.54 42.09 43.64 45.19 44.49 43.64 42.11 38.41 39.07 42.48 42.94 45.65 47.63 43.40 43.15 41.41 36.23 29.87 27.53 27.09 28.28 36.38 33.86 36.47 42.40 44.54 45.60 45.87 44.28 44.71 46.04
51.45 51.83 51.11 47.41 45.59 45.16 40.81 36.66 28.17 36.82 36.82 42.85 41.07 42.26 40.40 42.50 42.67 43.09 41.63 41.34 43.74 42.38 39.15 37.77 36.80 43.79 45.96 44.38 41.50 38.67 37.31 31.10 25.33 25.09 29.85 37.03 33.04 38.79 44.52 47.44 48.18 48.03 46.21 45.55 45.50
50.00 48.14 47.95 47.71 46.80 44.18 36.23 30.24 33.04 36.33 41.28 39.96 40.37 38.21 38.66 42.21 41.98 42.05 41.39 41.73 43.25 43.95 40.86 36.99 38.01 44.82 45.96 45.90 45.43 39.00 35.70 38.83 33.26 32.63 30.36 33.36 38.35 44.36 47.00 47.18 46.82 44.55 44.88 44.44 45.44
45.72 44.88 45.79 47.80 47.92 40.26 31.72 32.59 36.06 42.17 42.56 42.54 36.43 38.73 36.31 38.65 39.80 40.72 39.99 43.70 42.75 45.23 45.05 41.10 36.16 43.17 45.67 45.40 43.65 43.02 43.13 34.76 31.97 26.84 25.69 31.11 34.64 36.97 42.39 44.84 46.42 44.96 43.04 44.30 45.40
44.52 39.71 46.29 48.63 46.49 37.33 26.30 30.28 36.59 44.12 43.28 40.83 39.18 37.30 38.19 38.05 39.94 38.58 39.79 43.54 45.80 44.33 46.50 41.74 39.69 38.89 43.29 41.48 40.09 39.35 37.68 37.59 35.37 32.86 27.76 24.87 31.94 41.67 44.35 47.78 48.14 46.08 44.36 44.86 45.91
42.58 33.95 46.02 46.76 34.93 34.91 30.18 33.15 39.66 40.29 43.90 42.05 41.03 40.08 38.38 39.29 38.56 39.32 39.82 42.95 46.84 46.46 41.66 42.87 39.28 35.75 40.70 43.48 46.34 43.35 40.44 40.14 33.59 31.77 33.61 32.05 34.42 45.41 47.39 49.22 50.12 48.69 45.57 44.95 46.74
38.59 38.68 45.03 43.59 30.85 30.63 33.04 34.53 36.33 37.55 40.17 39.55 39.14 41.24 41.27 39.29 36.37 39.56 41.25 45.11 45.83 46.24 42.20 42.65 36.27 31.93 33.69 41.75 43.99 42.10 43.08 40.70 39.50 37.26 34.97 33.51 35.12 46.29 48.59 48.54 50.18 48.27 45.03 45.60 46.29
34.50 31.79 36.88 39.59 38.42 32.62 30.76 31.33 31.66 38.30 38.51 39.86 38.90 40.43 38.89 38.58 38.59 38.03 40.32 44.62 45.10 45.91 51.43 48.40 37.63 37.51 35.40 36.04 42.56 40.07 43.38 43.04 40.52 34.59 36.07 37.27 40.20 44.22 47.47 48.48 48.82 46.15 45.55 45.31 46.47
35.26 32.72 36.91 30.82 33.73 32.36 30.93 31.32 31.69 31.14 37.78 39.01 36.80 38.17 36.38 34.50 36.10 35.91 39.10 41.01 44.37 48.37 45.66 42.50 36.45 38.30 39.44 41.67 43.65 43.05 42.97 43.28 40.63 40.80 38.23 40.47 41.30 45.43 46.02 48.65 49.22 46.75 45.02 44.99 45.55
33.27 34.29 37.12 33.18 35.45 34.13 33.54 29.83 30.90 34.03 32.95 34.69 34.55 38.18 37.10 34.67 35.65 34.90 37.48 37.85 38.59 39.77 40.34 41.41 36.63 38.32 37.58 41.30 41.62 41.04 42.92 44.54 44.51 41.99 41.95 42.58 41.32 47.89 49.35 51.54 51.12 47.14 45.92 45.99 46.58
38.89 41.28 38.72 34.26 34.78 33.13 32.75 32.53 33.55 34.77 36.26 37.60 37.04 35.63 34.73 37.52 39.80 39.39 39.34 39.21 38.71 37.59 36.36 38.75 38.93 35.96 32.51 40.91 40.44 37.13 41.70 43.68 43.96 44.06 43.69 40.62 44.43 47.54 48.57 50.43 50.50 49.79 46.83 46.99 47.76
MSLP
1018.20 1018.19 1016.79 1016.48 1016.13 1016.41 1016.56 1016.31 1015.97 1015.37 1014.68 1014.29 1014.01 1013.68 1013.08 1012.73 1012.11 1012.12 1011.08 1009.66 1009.50 1009.43 1009.85 1010.83 1010.79 1010.85 1011.19 1011.58 1012.03 1012.89 1013.83 1014.42 1014.33 1014.05 1012.87 1012.26 1012.44 1012.37 1012.15 1012.50 1012.75 1013.04 1013.32 1013.65 1014.08
1018.40 1017.76 1017.27 1017.00 1016.72 1016.76 1016.59 1016.19 1015.81 1015.32 1014.67 1014.35 1013.93 1013.61 1013.13 1012.66 1012.28 1010.33 1008.68 1008.39 1008.80 1008.99 1009.73 1010.01 1010.36 1010.71 1011.41 1011.54 1011.92 1012.58 1013.44 1013.15 1012.63 1012.53 1012.20 1012.25 1012.24 1012.24 1012.61 1012.82 1013.16 1013.43 1013.71 1014.08 1014.41
1017.96 1017.65 1017.36 1017.39 1016.95 1016.38 1016.18 1015.78 1015.79 1015.39 1014.88 1014.32 1014.07 1013.69 1013.10 1012.62 1012.00 1008.38 1006.99 1007.30 1007.84 1008.55 1009.14 1009.35 1009.68 1010.29 1011.03 1011.33 1011.39 1011.83 1012.08 1011.59 1011.09 1011.08 1011.48 1011.84 1012.08 1012.23 1012.60 1013.18 1013.01 1013.13 1013.81 1014.35 1014.84
1018.21 1017.98 1017.93 1017.50 1016.55 1016.09 1015.85 1015.61 1015.66 1015.17 1014.57 1014.23 1014.11 1013.48 1013.15 1012.43 1010.87 1007.55 1007.05 1007.12 1007.57 1007.96 1009.08 1009.07 1009.59 1010.17 1010.76 1011.01 1010.64 1011.04 1010.62 1010.60 1010.15 1010.20 1010.92 1011.38 1011.54 1012.16 1012.45 1012.19 1012.05 1012.95 1013.65 1014.44 1015.14
1018.07 1017.82 1017.35 1016.65 1016.09 1015.83 1015.56 1015.46 1015.42 1014.85 1014.52 1014.19 1013.88 1013.54 1012.78 1011.96 1009.48 1007.13 1007.06 1007.29 1007.81 1008.39 1008.56 1009.02 1009.61 1009.95 1010.40 1010.27 1010.20 1010.31 1009.87 1009.90 1009.74 1009.92 1010.27 1010.73 1011.22 1011.93 1012.20 1012.13 1012.48 1013.30 1014.09 1014.66 1015.15
1017.99 1017.59 1017.23 1016.92 1016.61 1016.31 1015.91 1015.58 1015.25 1014.75 1014.27 1013.85 1013.43 1013.41 1012.77 1011.17 1007.59 1006.96 1007.04 1007.33 1007.52 1008.30 1008.25 1008.47 1008.80 1009.15 1009.92 1009.71 1009.69 1009.37 1009.37 1009.62 1009.96 1010.30 1010.48 1010.83 1011.37 1011.83 1011.70 1012.25 1012.98 1013.65 1014.30 1014.74 1015.16
1017.80 1017.61 1017.40 1017.08 1016.73 1016.24 1015.79 1015.41 1014.75 1014.23 1013.64 1013.28 1013.06 1013.32 1012.41 1008.13 1006.85 1006.73 1006.80 1006.96 1006.90 1007.18 1007.84 1007.60 1008.16 1008.95 1009.15 1009.39 1008.92 1009.22 1009.63 1009.71 1010.12 1010.42 1010.67 1010.84 1011.62 1011.61 1011.49 1012.32 1013.17 1013.89 1014.56 1015.07 1015.36
1017.33 1017.25 1017.11 1016.76 1016.45 1016.01 1015.41 1014.62 1014.14 1013.38 1012.67 1012.42 1012.53 1013.03 1010.83 1006.89 1006.40 1006.55 1006.47 1006.38 1006.59 1007.03 1007.05 1007.27 1008.19 1008.74 1008.99 1008.84 1009.19 1009.75 1010.21 1010.37 1010.14 1010.35 1010.54 1011.01 1010.98 1010.89 1011.27 1012.27 1013.20 1013.98 1014.62 1015.08 1015.35
1016.90 1016.78 1016.48 1016.14 1015.93 1015.50 1015.05 1014.00 1013.22 1012.70 1012.03 1011.96 1012.34 1012.30 1009.44 1006.56 1006.25 1005.33 1005.74 1006.10 1006.20 1006.61 1006.92 1007.26 1007.87 1008.80 1009.32 1009.51 1009.85 1010.50 1010.68 1010.75 1010.60 1010.46 1010.82 1011.21 1011.08 1010.75 1011.18 1012.07 1013.07 1013.95 1014.68 1015.17 1015.35
1016.89 1016.61 1016.30 1016.21 1015.96 1015.35 1014.25 1012.86 1012.17 1012.41 1012.26 1012.32 1011.61 1011.79 1008.04 1006.01 1005.21 1004.86 1004.89 1005.32 1005.92 1006.63 1007.28 1007.58 1008.42 1009.06 1009.75 1010.12 1010.28 1010.83 1010.92 1010.84 1010.87 1010.75 1010.99 1011.26 1011.10 1010.99 1011.46 1012.18 1012.84 1013.75 1014.51 1015.11 1015.34
1016.64 1016.46 1016.69 1016.54 1016.16 1015.68 1014.84 1013.43 1012.73 1012.77 1011.99 1010.27 1009.72 1008.40 1006.62 1005.62 1004.77 1004.79 1004.87 1005.27 1005.74 1006.54 1007.45 1007.96 1009.34 1009.20 1009.49 1009.92 1009.91 1010.51 1010.79 1010.98 1010.87 1010.70 1010.93 1010.99 1011.10 1010.56 1011.25 1012.10 1012.92 1013.62 1014.18 1014.75 1015.06
1016.04 1016.10 1016.47 1016.25 1015.83 1015.47 1015.16 1014.54 1014.20 1014.33 1012.19 1009.28 1008.59 1007.99 1006.29 1006.28 1006.06 1004.83 1004.57 1005.31 1006.05 1006.77 1007.75 1008.86 1008.45 1008.80 1009.32 1009.80 1010.08 1010.49 1010.81 1011.13 1010.86 1010.61 1011.26 1011.05 1011.17 1010.78 1011.21 1011.22 1011.89 1012.73 1013.84 1014.35 1014.82
1015.40 1015.64 1015.69 1015.49 1015.25 1015.05 1014.88 1014.23 1014.07 1013.77 1012.44 1008.02 1006.48 1005.59 1005.37 1005.66 1005.60 1004.73 1004.91 1004.73 1005.56 1006.86 1007.70 1008.18 1008.04 1008.52 1009.16 1009.44 1010.06 1010.24 1010.71 1010.94 1011.01 1010.96 1011.24 1011.43 1011.53 1011.17 1010.79 1011.18 1011.69 1012.48 1013.14 1014.00 1014.45
1014.95 1015.17 1015.39 1015.33 1015.39 1015.40 1014.84 1014.27 1013.81 1013.45 1011.68 1007.08 1005.09 1003.20 1003.72 1004.23 1004.53 1003.76 1003.93 1004.40 1005.26 1006.14 1007.29 1007.62 1007.58 1008.18 1008.69 1009.01 1009.40 1009.76 1010.05 1010.49 1011.22 1011.87 1012.09 1011.88 1011.88 1011.70 1011.01 1011.14 1011.43 1011.97 1012.61 1013.17 1014.03
1014.34 1014.51 1014.87 1015.14 1015.51 1015.31 1014.80 1013.88 1013.23 1012.98 1010.79 1004.95 1003.26 1001.55 1001.70 1002.47 1002.74 1002.97 1003.19 1003.93 1004.72 1005.54 1006.68 1006.70 1007.11 1007.55 1008.02 1008.27 1008.79 1009.36 1009.71 1010.51 1011.29 1012.19 1012.63 1012.49 1012.84 1011.53 1011.21 1011.07 1010.86 1010.92 1011.73 1012.51 1013.34
1013.67 1013.94 1014.34 1015.06 1015.52 1014.88 1014.25 1013.44 1013.08 1012.65 1007.65 1003.81 1002.01 1001.65 1002.35 1002.32 1002.27 1002.54 1002.94 1003.45 1004.16 1005.42 1005.90 1006.07 1006.12 1006.70 1006.91 1007.34 1008.01 1008.60 1009.91 1011.09 1012.19 1012.99 1013.45 1012.47 1012.47 1011.68 1010.80 1009.84 1009.59 1009.88 1010.92 1012.02 1012.85
1013.02 1013.29 1013.76 1014.11 1014.58 1014.43 1014.10 1013.54 1012.95 1009.49 1004.81 1002.84 1001.62 1001.52 1001.82 1002.22 1002.48 1002.19 1002.72 1003.40 1003.85 1005.15 1005.50 1006.11 1006.14 1005.95 1006.12 1007.16 1008.00 1008.90 1010.64 1012.19 1013.12 1013.67 1013.21 1012.34 1012.31 1010.54 1008.84 1008.28 1008.56 1009.00 1010.00 1011.01 1012.35
1012.42 1012.62 1012.74 1013.35 1013.82 1014.23 1014.20 1013.51 1010.37 1004.34 1003.38 1001.61 1001.05 1001.02 1001.44 1001.72 1002.13 1002.12 1002.52 1002.99 1003.39 1003.98 1005.03 1005.70 1005.99 1005.63 1005.72 1006.29 1007.36 1008.77 1010.17 1011.97 1012.96 1013.59 1013.02 1012.12 1011.19 1009.06 1007.84 1007.60 1007.69 1008.10 1009.34 1010.82 1011.93
1011.90 1012.09 1012.04 1012.59 1013.41 1014.09 1014.03 1012.06 1005.01 1002.95 1001.75 1001.66 1001.02 1001.02 1001.35 1001.30 1001.53 1002.28 1001.93 1001.91 1002.41 1003.00 1003.88 1005.04 1005.11 1004.96 1005.02 1005.47 1006.47 1008.31 1009.47 1009.95 1011.65 1012.65 1012.76 1011.72 1010.20 1008.37 1007.49 1007.70 1008.14 1008.79 1009.88 1010.68 1011.52
1011.32 1011.59 1011.08 1011.57 1012.83 1013.86 1013.27 1007.76 1004.38 1002.13 1001.03 1001.05 1000.77 1000.57 1000.95 1001.16 1001.45 1001.53 1001.61 1000.52 1001.49 1002.01 1002.55 1004.09 1005.15 1004.86 1004.80 1005.23 1005.97 1006.54 1007.88 1009.90 1011.38 1012.42 1012.62 1011.55 1010.32 1008.62 1007.81 1007.88 1008.27 1009.29 1009.97 1010.54 1011.36
1010.95 1010.55 1009.91 1010.86 1012.14 1012.93 1010.56 1005.70 1004.27 1002.23 1001.46 1000.82 1000.73 1000.91 1000.67 1000.82 1000.75 1000.91 1000.19 999.95 1000.14 1001.58 1002.40 1003.81 1004.70 1005.40 1005.14 1005.17 1005.76 1007.03 1007.91 1009.40 1010.53 1011.57 1011.72 1011.49 1009.78 1007.87 1007.39 1007.05 1007.50 1008.46 1009.51 1010.07 1010.56
1010.11 1009.96 1009.93 1010.09 1010.92 1010.39 1008.48 1005.61 1003.86 1002.55 1001.91 1001.04 1000.69 1000.83 1000.76 1000.52 1000.40 1000.36 999.86 999.32 999.24 1000.03 1002.02 1002.95 1004.14 1005.45 1005.10 1004.84 1004.88 1005.63 1006.68 1008.02 1009.91 1011.08 1011.03 1010.35 1008.41 1006.93 1006.87 1006.86 1006.73 1007.80 1009.34 1009.88 1010.77
1009.18 1009.54 1009.90 1009.38 1008.79 1008.64 1007.72 1006.62 1005.30 1003.59 1002.35 1001.93 1001.30 1000.84 1000.56 1000.58 1000.62 999.97 999.54 998.99 999.10 999.82 1000.95 1002.14 1003.38 1005.05 1005.53 1005.65 1005.38 1005.45 1006.41 1007.15 1008.16 1009.20 1009.86 1009.52 1007.60 1006.53 1006.54 1006.49 1006.50 1007.43 1008.76 1009.65 1010.59
1009.64 1009.64 1009.13 1009.11 1007.58 1007.89 1007.66 1006.86 1005.75 1004.38 1003.61 1002.87 1002.37 1001.69 1001.05 1000.81 1000.57 1000.40 999.98 999.62 999.32 999.73 1000.22 1000.99 1002.43 1003.25 1003.55 1004.42 1004.98 1005.49 1005.97 1006.52 1007.10 1008.35 1008.42 1007.80 1006.99 1006.26 1005.94 1005.76 1006.68 1007.27 1008.24 1009.35 1010.14
1008.95 1008.59 1007.86 1008.17 1007.85 1007.43 1007.18 1006.28 1005.79 1005.17 1003.91 1003.31 1003.10 1002.43 1001.71 1001.42 1001.29 1001.27 1000.68 1000.15 1000.05 1000.00 1000.62 1001.33 1002.32 1003.08 1003.19 1003.59 1004.08 1004.27 1004.72 1005.35 1005.98 1006.07 1006.54 1006.34 1006.12 1005.34 1005.15 1005.43 1006.02 1006.63 1007.88 1008.78 1009.68
1008.55 1008.52 1008.38 1007.91 1007.57 1007.66 1007.24 1006.30 1005.79 1005.04 1004.58 1003.90 1003.79 1002.93 1002.52 1002.57 1002.44 1002.12 1001.39 1001.14 1001.07 1001.31 1001.60 1002.09 1002.69 1002.83 1003.31 1003.36 1003.33 1003.70 1003.18 1003.89 1004.27 1004.80 1005.12 1004.82 1004.87 1004.42 1004.56 1004.93 1005.56 1005.89 1007.27 1007.90 1008.31
1008.84 1008.31 1008.25 1007.50 1007.15 1007.15 1006.41 1006.01 1005.42 1005.47 1004.61 1004.51 1004.18 1003.96 1003.61 1003.26 1002.92 1002.47 1002.27 1002.08 1002.52 1002.59 1002.57 1002.85 1003.22 1003.70 1004.05 1003.61 1003.77 1002.20 1002.40 1003.00 1003.60 1003.78 1003.74 1004.05 1003.78 1003.93 1004.40 1004.57 1004.60 1005.39 1006.28 1006.67 1007.26
Wind_Speed
16 15 17 18 16 15 17 17 17 16 17 16 15 14 14 13 14 4 8 12 8 8 8 7 3 4 3 4 5 3 4 3 6 4 8 0 3 1 1 6 1 1 4 1 8
14 16 16 17 16 14 16 17 19 18 16 17 16 14 13 12 3 13 6 13 13 11 6 9 6 7 2 4 3 5 3 8 7 6 6 4 5 7 3 3 1 2 4 5 5
16 17 17 15 16 16 17 18 19 19 17 16 15 14 12 6 3 10 18 20 16 13 3 4 5 6 3 3 4 6 6 7 8 8 7 5 2 4 6 4 8 10 9 5 4
15 15 15 16 17 18 19 19 19 20 19 18 16 14 12 2 7 2 5 6 11 12 6 5 4 4 3 5 5 3 10 6 8 8 7 7 6 5 5 8 4 8 9 6 7
16 17 18 19 20 20 19 21 22 20 19 16 14 13 2 1 12 4 4 11 8 8 11 7 6 4 4 5 5 6 5 1 3 7 4 7 5 4 8 4 5 9 7 9 8
15 16 17 18 19 19 19 19 19 19 18 15 12 8 2 8 7 5 6 7 7 6 7 9 9 9 5 6 6 7 5 2 2 1 2 6 1 2 6 6 7 9 9 7 8
14 15 16 16 18 20 18 19 21 20 20 16 8 3 4 19 5 1 5 4 6 7 7 7 8 7 4 6 2 3 2 5 1 4 3 4 4 10 4 7 8 9 6 6 7
14 14 16 17 19 20 21 22 23 23 21 11 7 5 10 7 10 11 8 6 4 6 2 7 5 3 2 3 4 4 5 3 4 5 3 6 11 6 9 11 10 8 7 7 6
14 14 16 18 20 21 21 25 26 14 7 9 7 3 11 5 4 9 8 7 6 4 4 4 7 5 2 2 4 7 3 4 6 7 3 5 9 3 6 11 9 8 7 7 6
14 13 14 16 18 20 23 28 15 4 4 5 4 1 7 6 5 4 6 8 4 6 4 4 4 3 3 3 6 4 3 3 4 3 3 3 14 6 6 10 9 9 8 7 7
14 11 11 12 15 16 13 8 4 2 3 9 5 6 6 4 3 2 4 7 4 5 7 4 5 8 9 7 5 4 3 5 4 5 5 8 10 16 6 6 8 9 9 8 8
13 11 11 11 13 15 2 1 5 4 10 11 17 14 21 5 6 5 8 8 7 6 7 4 13 7 7 4 4 3 3 5 6 3 6 8 10 8 7 9 11 13 10 9 6
11 10 11 12 12 4 3 3 4 5 5 8 11 11 10 11 10 10 7 6 6 7 7 9 4 8 7 5 4 5 4 5 7 2 3 1 7 6 5 3 4 6 7 6 10
12 8 7 10 0 4 1 9 8 3 4 9 7 11 10 11 7 10 9 7 2 14 9 7 6 8 5 5 8 4 8 5 4 2 5 4 7 7 6 6 7 9 10 12 10
12 9 5 2 3 3 4 11 9 2 7 8 7 3 8 15 11 8 6 2 10 7 8 10 8 7 6 10 8 10 4 5 3 4 2 2 3 8 2 7 11 12 13 12 11
14 12 7 4 1 5 8 11 1 5 15 6 6 8 7 7 7 7 8 5 7 7 3 10 5 10 13 9 9 3 3 6 5 4 2 8 8 6 5 9 7 4 12 13 13
14 15 9 6 4 4 5 3 3 10 2 7 8 7 11 7 8 10 14 13 12 9 11 4 5 4 6 5 3 5 7 4 6 4 7 3 4 10 9 10 9 8 14 15 13
13 14 9 6 3 1 3 3 11 10 12 3 5 6 10 9 11 9 8 14 14 7 7 10 9 11 4 9 11 7 10 7 6 3 6 3 5 9 7 6 8 7 10 13 13
14 5 5 7 7 4 2 8 15 8 14 4 3 5 5 8 8 10 18 16 13 13 17 9 8 3 7 6 12 5 5 6 5 1 2 4 8 11 4 4 4 7 11 14 14
6 5 10 13 11 4 3 26 8 7 5 24 9 6 10 7 10 17 15 16 13 9 6 7 2 5 7 5 1 10 7 2 3 2 4 4 5 8 9 4 5 6 9 11 10
4 5 7 17 10 6 10 16 22 8 3 16 23 7 7 9 10 9 8 9 21 10 12 7 7 4 7 7 10 3 3 5 5 5 6 3 8 7 6 9 9 9 10 14 16
4 5 10 14 8 6 17 9 8 23 4 3 3 8 8 7 10 12 13 13 12 15 14 8 8 7 9 3 5 7 11 9 6 5 3 5 9 6 7 9 6 8 9 8 9
2 2 5 13 12 13 14 11 11 9 6 3 3 4 5 7 4 5 6 6 9 17 13 9 3 4 5 4 1 5 5 5 5 5 7 6 7 3 4 3 4 7 9 9 9
3 5 3 6 4 14 16 17 7 15 12 1 3 4 2 5 1 4 2 3 2 6 10 15 7 12 16 5 7 5 5 6 7 5 6 7 5 5 2 4 1 6 9 9 10
3 2 3 5 9 11 7 3 21 8 9 3 3 4 3 4 4 4 2 2 4 3 5 8 8 6 5 10 11 13 9 12 10 9 9 9 9 7 4 4 6 8 8 11 10
4 2 2 2 12 14 8 4 16 21 3 11 4 3 5 4 4 4 3 3 2 7 4 1 4 8 7 9 13 11 16 16 17 3 2 6 5 7 4 4 4 9 13 14 16
1 0 3 1 5 9 12 13 5 2 2 5 4 2 5 1 5 6 7 4 3 1 2 1 5 5 5 5 7 18 15 14 8 5 10 8 10 8 5 8 8 7 13 16 15
Wind_Direction
345 339 355 351 354 341 335 333 328 329 329 326 328 334 336 331 315 166 218 219 191 147 127 137 132 133 103 149 146 132 74 217 248 197 249 217 162 278 10 129 113 219 152 181 120
343 347 348 343 340 333 331 332 331 327 326 323 328 331 334 334 333 261 180 207 206 155 139 172 159 135 127 179 157 116 136 219 198 197 235 211 190 175 171 140 85 64 63 87 94
343 342 340 334 333 335 333 334 330 326 324 324 324 327 329 314 339 259 189 206 186 174 158 145 111 121 162 174 196 185 201 210 230 211 184 191 235 177 132 254 210 195 165 136 118
331 331 327 326 333 333 330 330 325 323 325 325 321 326 316 260 245 225 358 261 188 153 136 135 118 152 202 219 191 180 239 187 252 184 147 185 133 199 201 228 218 168 148 142 156
327 328 329 334 334 331 329 325 319 317 314 315 318 322 303 347 247 223 41 93 110 138 177 158 160 143 228 229 159 190 259 199 241 157 170 119 198 193 239 323 118 125 145 157 164
321 325 327 327 325 323 320 315 310 305 301 304 313 320 179 253 247 285 214 142 151 166 160 138 190 194 259 224 169 210 202 56 52 158 169 152 190 143 240 139 135 148 175 168 165
314 317 318 320 320 320 316 310 306 300 298 296 285 206 238 233 215 132 162 172 170 173 177 191 145 165 175 280 248 84 118 37 247 149 236 113 305 237 193 158 162 178 162 161 191
310 311 315 319 322 321 318 313 302 304 298 285 177 186 244 246 258 262 256 273 204 216 178 137 125 222 183 250 35 95 53 98 278 149 252 140 263 264 186 164 188 174 167 173 194
307 308 315 322 324 324 318 309 300 299 292 135 122 185 263 301 226 235 167 200 151 170 115 107 121 183 359 200 31 10 224 207 310 201 129 173 264 282 173 182 183 172 174 178 194
296 303 312 315 320 324 321 306 290 280 132 200 249 306 271 238 243 206 176 142 154 122 94 121 76 173 69 102 212 236 235 230 243 244 183 224 264 256 199 199 192 171 173 184 193
282 288 294 303 315 320 337 344 8 189 223 199 203 240 290 283 275 214 178 112 113 100 154 165 138 204 203 203 189 198 202 248 268 243 180 236 252 274 206 205 184 184 179 188 200
270 272 284 299 309 312 270 284 60 273 296 235 245 249 266 20 316 306 148 132 147 165 112 80 220 186 200 173 179 164 227 267 274 277 159 272 271 265 185 223 201 188 183 186 185
266 273 291 308 315 354 298 74 317 325 255 263 203 214 220 152 221 252 192 144 139 151 168 185 183 164 170 199 173 202 173 232 239 315 240 171 308 300 267 250 172 182 179 169 185
254 239 268 310 351 315 233 319 315 264 294 271 206 250 171 143 238 206 184 151 141 188 169 207 197 173 168 195 166 253 216 228 268 45 269 132 270 285 279 274 226 193 184 182 183
249 233 228 129 268 306 328 311 304 128 287 248 204 232 177 170 154 217 165 109 165 177 139 213 157 176 171 211 163 231 140 194 227 207 106 274 71 262 352 283 256 212 194 185 179
255 234 182 95 61 260 302 305 130 70 244 270 195 176 118 201 189 145 157 143 160 160 245 203 192 164 197 213 174 169 106 48 55 95 50 234 156 279 215 214 256 175 188 185 173
261 240 177 150 214 230 313 346 118 207 223 218 202 161 177 162 198 164 169 180 180 158 203 169 187 195 144 148 86 93 70 341 342 10 223 105 97 233 252 241 228 221 189 175 169
254 241 204 166 187 69 14 82 218 214 203 291 164 147 180 152 209 187 155 186 212 158 159 180 227 169 178 168 181 180 153 157 227 225 259 136 233 252 227 290 272 214 177 157 163
255 243 199 163 143 109 120 198 222 173 196 226 116 139 200 192 156 177 214 205 186 184 201 171 228 135 164 154 145 179 153 198 133 167 61 243 289 312 255 356 26 113 144 167 167
237 228 239 150 142 118 124 227 223 198 151 201 196 167 186 185 173 190 180 208 206 172 139 196 166 206 198 95 29 165 162 110 15 193 231 281 286 241 292 288 166 163 181 172 161
214 231 162 144 142 177 212 229 220 297 305 184 218 192 214 178 179 193 226 219 189 170 173 134 132 269 103 177 167 124 161 57 122 146 181 235 259 220 238 244 222 193 189 180 175
231 217 153 150 185 195 228 211 327 221 268 275 201 197 194 184 182 199 204 197 180 160 169 185 150 191 200 197 173 205 186 165 155 232 214 181 263 247 264 278 202 162 191 175 192
222 201 184 178 199 213 230 243 267 254 276 297 271 209 191 191 187 173 169 219 160 175 155 170 199 151 326 5 318 171 179 149 120 93 190 176 264 185 264 275 224 158 167 167 171
132 189 156 234 232 210 217 233 262 241 277 70 316 304 133 159 230 147 141 71 93 155 167 158 157 189 219 201 160 185 180 184 153 134 184 216 209 267 183 48 250 152 162 166 183
132 235 308 173 205 215 176 249 217 252 225 121 236 262 189 160 97 123 200 12 98 250 114 141 204 180 192 195 190 209 191 180 189 190 166 214 205 229 176 183 192 170 149 157 169
163 165 156 280 222 218 224 207 238 218 276 221 251 166 26 56 52 104 60 81 87 18 98 33 216 174 214 199 192 214 215 193 206 122 93 146 227 201 172 170 185 156 170 183 186
229 224 310 102 241 206 211 213 237 227 357 152 121 8 59 217 276 242 214 260 231 49 0 321 137 104 222 184 130 245 206 189 197 187 159 185 212 156 176 205 219 190 183 194 192